Weather History for Zanesville, OH

Change the Weather History Date:

Saturday, September 7, 2013

  Actual Average Record
Temperature  
Mean Temperature 64 °F 68 °F  
Max Temperature 80 °F 79 °F 93 °F (1985)
Min Temperature 47 °F 56 °F 38 °F (1988)
Degree Days  
Heating Degree Days 1 1  
Month to date heating degree days 7 7  
Since 1 July heating degree days 16 18  
Cooling Degree Days 0 4  
Month to date cooling degree days 26 32  
Year to date cooling degree days 759 709  
Growing Degree Days 14 (Base 50)    
Moisture  
Dew Point 54 °F    
Average Humidity 69    
Maximum Humidity 93    
Minimum Humidity 45    
Precipitation  
Precipitation 0.00 in 0.10 in 0.97 in (1996)
Month to date precipitation 0.00 0.70  
Year to date precipitation 28.01 27.22  
Sea Level Pressure  
Sea Level Pressure 30.06 in    
Wind  
Wind Speed 2 mph (SW)    
Max Wind Speed 9 mph    
Max Gust Speed 26 mph    
Visibility 10 miles    
Events      
T = Trace of Precipitation, MM = Missing Value Source: NWS Daily Summary

Daily Weather History Graph

Daily Weather History Graph

Search for Another Location

Airport:

Trip Planner

Search our weather history database for the weather conditions in past years. The results will help you decide how hot, cold, wet, or windy it might be!

Date:

Astronomy

Sep. 07, 2013 Rise Set
Actual Time 7:01 AM EDT 7:48 PM EDT
Civil Twilight 6:33 AM EDT 8:16 PM EDT
Nautical Twilight 6:01 AM EDT 8:48 PM EDT
Astronomical Twilight 5:27 AM EDT 9:22 PM EDT
Moon 9:14 AM EDT (9/7) 8:46 PM EDT (9/7)
Length of Visible Light 13h 42m
Length of Day
12h 47m
Waxing Crescent, 5% of the Moon is Illuminated
Sep 7
Waxing Crescent
Sep 12
First Quarter
Sep 19
Full
Sep 26
Last Quarter
Oct 4
New

Hourly Weather History & Observations

Time (EDT) Temp. Heat Index Dew Point Humidity Pressure Visibility Wind Dir Wind Speed Gust Speed Precip Events Conditions
12:53 AM 53.1 °F - 50.0 °F 89% 30.13 in 10.0 mi Calm Calm - N/A   Clear
1:53 AM 53.1 °F - 50.0 °F 89% 30.12 in 10.0 mi Calm Calm - N/A   Clear
2:53 AM 51.1 °F - 46.9 °F 86% 30.12 in 10.0 mi Calm Calm - N/A   Clear
3:53 AM 50.0 °F - 46.9 °F 89% 30.11 in 10.0 mi Calm Calm - N/A   Clear
4:53 AM 48.9 °F - 46.0 °F 90% 30.12 in 10.0 mi Calm Calm - N/A   Clear
5:53 AM 48.0 °F - 45.0 °F 89% 30.11 in 10.0 mi Calm Calm - N/A   Clear
6:53 AM 48.0 °F - 45.0 °F 89% 30.12 in 10.0 mi Calm Calm - N/A   Clear
7:53 AM 50.0 °F - 46.0 °F 86% 30.12 in 10.0 mi Calm Calm - N/A   Clear
8:53 AM 55.0 °F - 51.1 °F 86% 30.11 in 10.0 mi Calm Calm - N/A   Clear
9:53 AM 62.1 °F - 54.0 °F 75% 30.11 in 10.0 mi Calm Calm - N/A   Clear
10:53 AM 66.9 °F - 55.0 °F 66% 30.10 in 10.0 mi North - - N/A   Clear
11:53 AM 73.0 °F - 53.1 °F 49% 30.09 in 10.0 mi West 5.8 mph - N/A   Clear
12:53 PM 75.9 °F - 55.0 °F 48% 30.07 in 10.0 mi SW 4.6 mph - N/A   Clear
1:53 PM 78.1 °F - 55.0 °F 45% 30.05 in 10.0 mi WSW 6.9 mph - N/A   Clear
2:53 PM 79.0 °F - 55.9 °F 45% 30.04 in 10.0 mi Variable 4.6 mph - N/A   Partly Cloudy
3:53 PM 79.0 °F - 57.9 °F 48% 30.01 in 10.0 mi SSW 5.8 mph - N/A   Clear
4:53 PM 80.1 °F 80.9 °F 60.1 °F 50% 29.99 in 10.0 mi WSW 4.6 mph - N/A   Clear
5:53 PM 78.1 °F - 61.0 °F 56% 29.99 in 10.0 mi SSW 5.8 mph - N/A   Clear
6:53 PM 75.9 °F - 63.0 °F 64% 29.97 in 10.0 mi SSW 3.5 mph - N/A   Clear
7:53 PM 73.9 °F - 62.1 °F 66% 29.98 in 10.0 mi Calm Calm - N/A   Clear
8:53 PM 72.0 °F - 62.1 °F 71% 29.98 in 10.0 mi Calm Calm - N/A   Partly Cloudy
9:53 PM 69.1 °F - 62.1 °F 78% 29.97 in 10.0 mi South 5.8 mph - N/A   Clear
10:53 PM 69.1 °F - 62.1 °F 78% 29.96 in 10.0 mi South 3.5 mph - N/A   Partly Cloudy
11:53 PM 68.0 °F - 61.0 °F 78% 29.96 in 10.0 mi Calm Calm - N/A   Clear